Current weather by "City, St" or "zip code"  
 
Advertise Here

Current Conditions: Imperial, Imperial Municipal Airport, NE

Thunderstorm


63.0 F

Last Updated on May 30 2020, 1:53 am MDT
Humidity: 68%
Wind Speed: N 3.5 mph
Barometer 30.19 in
Dewpoint: 52.0 F
Visibility: 10.00 mi
Precip: --
Heat Index: NA
Wind Chill: NA
Current conditions at:

Imperial, Imperial Municipal Airport, NE (KIML)

Lat: 40.51667 Lon: 101.61667

Local Radar Image active severe weather and emergency alerts image image weather storm and storm spotter reports image weather observation monitoring service image
Local
Radar
Active
Alerts
Storm Reports Obs
Monitoring

Sign-up For Email & Text Message Weather Alert Notification Services


Advertise Here

Observation History for Imperial, Imperial Municipal Airport, NE


Time Wind
(mph)
Vis
(mi)
Weather Precip (in) Temperature (F) Relative
Humidity
Wind
Chill
(F)
Heat
Index
(F)
Pressure
Air Dwpt altimeter
(in)
sea level
(mb)
Rmks
1:53 am MDT N 3.5 10.00 Thunderstorm -- 63.0 52.0 68% NA NA 30.19 1019.3
12:53 am MDT SE 16.1 G 25.3 10.00 Partly Cloudy -- 62.0 51.1 67% 60 NA 30.10 1016.7
11:53 pm MDT SE 17.3 10.00 Partly Cloudy -- 63.0 51.1 65% 61 NA 30.13 1017.7
10:53 pm MDT SE 17.3 10.00 Fair -- 65.0 51.1 61% NA NA 30.15 1018.3
9:53 pm MDT SE 18.4 10.00 Fair Trace 68.0 51.1 55% NA NA 30.15 1018.5
8:53 pm MDT SE 15.0 10.00 Fair -- 69.0 52.0 55% NA NA 30.13 1018.1
7:53 pm MDT SE 15.0 10.00 Fair -- 74.0 51.1 45% NA NA 30.12 1017.6
6:53 pm MDT SE 16.1 G 29.9 10.00 Fair -- 78.0 52.0 40% NA NA 30.10 1017.0
5:53 pm MDT SE 23.0 G 28.8 10.00 Fair and Breezy -- 81.0 52.0 37% NA 80 30.09 1017.0
4:53 pm MDT SE 21.9 G 34.5 10.00 Fair and Breezy -- 83.0 52.0 34% NA 82 30.10 1017.2
3:53 pm MDT SE 13.8 G 27.6 10.00 Fair -- 84.0 51.1 32% NA 82 30.12 1017.5
2:53 pm MDT SE 15.0 G 29.9 10.00 Fair -- 83.0 51.1 33% NA 82 30.13 1017.9
1:53 pm MDT S 16.1 G 25.3 10.00 Fair -- 82.0 51.1 34% NA 81 30.15 1018.7
12:53 pm MDT S 16.1 G 24.2 10.00 Fair -- 79.0 50.0 36% NA NA 30.17 1019.8
11:53 am MDT S 16.1 G 32.2 10.00 Fair -- 77.0 48.9 37% NA NA 30.19 1020.4
10:53 am MDT SE 17.3 G 25.3 10.00 Fair -- 74.0 46.9 38% NA NA 30.21 1021.2
9:53 am MDT SE 18.4 G 24.2 10.00 Fair -- 70.0 46.0 42% NA NA 30.24 1022.2
8:53 am MDT SE 17.3 10.00 Fair -- 66.0 43.0 43% NA NA 30.25 1022.9
7:53 am MDT SE 16.1 10.00 A Few Clouds -- 62.0 42.1 48% 60 NA 30.26 1023.1
6:53 am MDT SE 5.8 10.00 Fair -- 56.0 46.9 72% 55 NA 30.27 1023.1
5:53 am MDT SE 6.9 10.00 Partly Cloudy -- 51.0 46.0 83% 48 NA 30.26 1023.2
4:53 am MDT SE 3.5 10.00 Fair -- 51.0 46.0 83% NA NA 30.25 1022.7
3:53 am MDT S 4.6 10.00 Mostly Cloudy -- 54.0 46.9 77% 53 NA 30.25 1022.5
2:53 am MDT N 0.0 10.00 Mostly Cloudy -- 54.0 48.0 80% NA NA 30.26 1023.1

Regional Weather Observation


Holyoke Airport, CO (KHEQ)

Partly Cloudy
64.0 F

Ogallala, Searle Field Airport, NE (KOGA)

Rain
60.0 F

Wray Municipal Airport, CO (K2V5)

Fair
64.0 F

Sidney, Sidney Municipal Airport, NE (KSNY)

Fair
60.0 F

McCook, McCook Municipal Airport, NE (KMCK)

Fair
61.0 F

ST FRANCIS, KS (KSYF)

Partly Cloudy
62.0 F